Regional Weather Roundup
Issued by NWS

Home | Current Version | Previous Version | Text Only | Print | Product List | Glossary On
Versions: 1 2 3 4 5 6 7 8 9 10 11 12 13 14 15 16 17 18 19 20 21 22 23 24 25 26 27 28 29 30 31 32 33 34 35 36 37 38 39 40 41 42 43 44 45 46 47 48 49 50
000
ASUS46 KSEW 271210
RWRWA

WASHINGTON REGIONAL WEATHER ROUNDUP
NATIONAL WEATHER SERVICE SEATTLE WA
500 AM PDT THU APR 27 2017

NOTE:"FAIR" INDICATES FEW OR NO CLOUDS BELOW 12,000 FEET WITH NO
SIGNIFICANT WEATHER AND/OR OBSTRUCTIONS TO VISIBILITY.

WAZ507-509-555>559-271300-
SEATTLE, TACOMA, EVERETT, AND VICINITY

CITY           SKY/WX    TMP DP  RH WIND       PRES   REMARKS
EVERETT        MOCLDY    42  41  96 SE8       30.03R
6HR MIN TEMP:  42; 6HR MAX TEMP:  44; 6HR PCP: TRACE;

BOEING FIELD   MOCLDY    44  40  85 S7        30.05R
6HR MIN TEMP:  43; 6HR MAX TEMP:  47; 6HR PCP:  0.02;

RENTON         CLOUDY    46  40  79 SE7       30.05R
6HR MIN TEMP:  46; 6HR MAX TEMP:  48; 6HR PCP:  0.01;

SEATAC AIRPORT CLOUDY    44  39  82 S9        30.04R
6HR MIN TEMP:  44; 6HR MAX TEMP:  47; 6HR PCP: TRACE;

JBLM-MCCHORD   PTCLDY    42  40  94 S12       30.05
6HR MIN TEMP:  42; 6HR MAX TEMP:  45;

PUYALLUP         N/A     43  39  87 S6        30.06R
BREMERTON      NOT AVBL
JBLM-FT LEWIS  MOCLDY    42  37  84 SW6       30.10R
6HR MIN TEMP:  44; 6HR MAX TEMP:  54;

TACOMA NARROWS PTCLDY    42  39  89 S7        30.05R
6HR MIN TEMP:  42; 6HR MAX TEMP:  45;

$$

WAZ001-503-506-510-514-515-271300-
NORTH INTERIOR

CITY           SKY/WX    TMP DP  RH WIND       PRES   REMARKS
BELLINGHAM     CLOUDY    46  42  86 S5        29.99R
6HR MIN TEMP:  45; 6HR MAX TEMP:  50; 6HR PCP: TRACE;

FRIDAY HARBOR  CLEAR     43  39  86 SW6       30.01R
6HR MIN TEMP:  43; 6HR MAX TEMP:  47;

EASTSOUND      PTCLDY    45  39  81 S8        29.98R
PORT ANGELES   PTCLDY    42  35  76 W13       30.02R
6HR MIN TEMP:  41; 6HR MAX TEMP:  45;

EDIZ HOOK      FAIR      46  35  66 W10       30.03R
6HR MIN TEMP:  46; 6HR MAX TEMP:  48;

PORT TOWNSEND  CLOUDY    37  37 100 SE3       30.04R
NAS WHIDBEY    MOCLDY    48  37  65 W20       30.05S
6HR MIN TEMP:  48; 6HR MAX TEMP:  49;

ARLINGTON      CLOUDY    43  36  75 S8        30.06R
6HR MIN TEMP:  37; 6HR MAX TEMP:  50;

BURLINGTON     CLOUDY    45  39  81 SW8       30.02R
$$

WAZ020-022-039-040-504-511-512-271300-
SOUTHWEST INTERIOR

CITY           SKY/WX    TMP DP  RH WIND       PRES   REMARKS
SHELTON        MOCLDY    41  38  89 W10       30.03R
6HR MIN TEMP:  41; 6HR MAX TEMP:  44;

OLYMPIA        MOCLDY    40  38  93 S8        30.07R
6HR MIN TEMP:  40; 6HR MAX TEMP:  45;

CHEHALIS       CLOUDY    41  41 100 CALM      30.09R
KELSO          PTCLDY    42  41  96 S5        30.12R
6HR MIN TEMP:  42; 6HR MAX TEMP:  46; 6HR PCP:  0.06;

VANCOUVER      MOCLDY    45  41  86 S3        30.12R
6HR MIN TEMP:  44; 6HR MAX TEMP:  48;

SCAPPOOSE, OR  PTCLDY    35  35 100 SW3       30.12R
6HR MIN TEMP:  34; 6HR MAX TEMP:  44;

PORTLAND, OR   MOCLDY    43  39  86 SW6       30.13R
6HR MIN TEMP:  42; 6HR MAX TEMP:  47;

$$

WAZ021-516-517-271300-
WASHINGTON COAST

CITY           SKY/WX    TMP DP  RH WIND       PRES   REMARKS
FORKS          LGT RAIN  39  39 100 NE3       30.05R
6HR MIN TEMP:  37; 6HR MAX TEMP:  44; 6HR PCP:  0.02;

HOQUIAM        MOCLDY    47  40  76 W9G17     30.07R
6HR MIN TEMP:  45; 6HR MAX TEMP:  49; 6HR PCP: TRACE;

ASTORIA, OR    CLOUDY    45  40  82 SW3       30.09S
6HR MIN TEMP:  44; 6HR MAX TEMP:  47; 6HR PCP:  0.03;

$$

WAZ019-023-024-040-567>569-271300-
CASCADE MOUNTAINS AND COLUMBIA GORGE

CITY           SKY/WX    TMP DP  RH WIND       PRES   REMARKS
STAMPEDE PASS  SNOW      29  29 100 W8G22     29.89S VSB 1/4
6HR MIN TEMP:  29; 6HR MAX TEMP:  30; 6HR PCP:  0.50;

TROUTDALE, OR  MOCLDY    45  40  82 SW7       30.12S
6HR MIN TEMP:  44; 6HR MAX TEMP:  48;

THE DALLES, OR PTCLDY    45  37  73 W15       30.05R
6HR MIN TEMP:  44; 6HR MAX TEMP:  50;

$$

WAZ026-027-041>044-520-521-271300-
EAST SLOPES

CITY           SKY/WX    TMP DP  RH WIND       PRES   REMARKS
OMAK           CLOUDY    38  25  59 CALM      29.80R
6HR MIN TEMP:  34; 6HR MAX TEMP:  47;

WENATCHEE      CLEAR     43  26  51 W9        29.86R
6HR MIN TEMP:  40; 6HR MAX TEMP:  47;

ELLENSBURG     CLEAR     40  31  70 NW20G28   29.90S
6HR MIN TEMP:  39; 6HR MAX TEMP:  43;

YAKIMA         CLEAR     38  29  70 W7        29.94R
6HR MIN TEMP:  36; 6HR MAX TEMP:  51;

SUNNYSIDE ARPT SUNNY     33  29  87 N3        29.94S
6HR MIN TEMP:  31; 6HR MAX TEMP:  46;

$$

WAZ028-034-035-271300-
COLUMBIA BASIN

CITY           SKY/WX    TMP DP  RH WIND       PRES   REMARKS
EPHRATA        CLEAR     44  24  45 W16       29.82S
6HR MIN TEMP:  43; 6HR MAX TEMP:  48;

MOSES LAKE     CLEAR     40  29  64 SW12      29.85S
6HR MIN TEMP:  40; 6HR MAX TEMP:  48;

PASCO          CLEAR     43  31  62 SW17      29.95S
6HR MIN TEMP:  39; 6HR MAX TEMP:  50;

HERMISTON, OR  CLEAR     43  35  73 W18G29    29.97R
6HR MIN TEMP:  43; 6HR MAX TEMP:  49;

$$

WAZ036>038-271300-
NORTHEAST WASHINGTON

CITY           SKY/WX    TMP DP  RH WIND       PRES   REMARKS
SPOKANE GEIGER MOCLDY    36  30  79 SW15      29.79R
6HR MIN TEMP:  36; 6HR MAX TEMP:  43; 6HR PCP: TRACE;

SPOKANE FELTS  MOCLDY    38  32  79 SW10      29.81R
6HR MIN TEMP:  36; 6HR MAX TEMP:  43;

FAIRCHILD AFB  CLOUDY    35  31  85 SW15      29.78R WCI  26
6HR MIN TEMP:  35; 6HR MAX TEMP:  40; 6HR PCP: TRACE;

COEURDALENE,ID PTCLDY    36  32  85 S7        29.80R
6HR MIN TEMP:  35; 6HR MAX TEMP:  41; 6HR PCP: TRACE;

DEER PARK      CLOUDY    37  32  82 S8        29.79R
6HR MIN TEMP:  35; 6HR MAX TEMP:  41;

$$

WAZ029>033-271300-
SOUTHEAST WASHINGTON

CITY           SKY/WX    TMP DP  RH WIND       PRES   REMARKS
PULLMAN        MOCLDY    37  32  82 W15G25    29.88R
6HR MIN TEMP:  37; 6HR MAX TEMP:  43;

LEWISTON, ID   CLOUDY    43  35  73 SW6       29.89S
6HR MIN TEMP:  43; 6HR MAX TEMP:  48;

WALLA WALLA    CLOUDY    43  35  73 S13       29.96R
6HR MIN TEMP:  43; 6HR MAX TEMP:  47;

PENDLETON, OR  LGT RAIN  40  32  73 W24G35    29.95S
6HR MIN TEMP:  40; 6HR MAX TEMP:  46; 6HR PCP: TRACE;

$$



USA.gov is the U.S. government's official web portal to all federal, state and local government web resources and services.